Miscellaneous Local Product
Issued by NWS Hastings, NE

Home | Current Version | Previous Version | Graphics & Text | Print | Product List | Glossary Off
Versions: 1 2 3 4 5 6 7 8 9 10 11 12 13 14 15 16 17 18 19 20 21 22 23 24 25 26 27 28 29 30 31 32 33 34 35 36 37 38 39 40 41 42 43 44 45 46 47 48 49 50

000
AXUS43 KGID 302302
MISGRI

GID CWA HOURLY WEATHER ROUNDUP
NATIONAL WEATHER SERVICE HASTINGS NE
600 PM CDT MON MAR 30 2015

NOTE: "FAIR" INDICATES FEW OR NO CLOUDS BELOW 12,000 FEET WITH NO
SIGNIFICANT WEATHER AND/OR OBSTRUCTIONS TO VISIBILITY.

...SOUTH CENTRAL NEBRASKA...

CITY           SKY/WX    TMP DP  RH WIND       PRES   REMARKS
GRAND ISLAND   PTSUNNY   77  22  13 NW17      29.93F
HASTINGS       SUNNY     77  26  15 NW13      29.92F
KEARNEY          N/A    N/A N/A N/A MISG        N/A
ORD            MOSUNNY   75  22  13 NW15G24   29.93S
YORK           PTSUNNY   73  27  17 NW12      29.92F
AURORA         MOSUNNY   75  24  14 N7        29.92F
LEXINGTON      SUNNY     77  21  12 N7G17     29.94F
HOLDREGE       SUNNY     76  21  12 N9        29.94F
HEBRON         SUNNY     78  21  12 W7        29.90F

...NEBRASKA PANHANDLE...

CITY           SKY/WX    TMP DP  RH WIND       PRES   REMARKS
CHADRON        SUNNY     70  27  20 W10G21    30.00F
ALLIANCE       SUNNY     69  26  20 NW14G23   30.03F
SCOTTSBLUFF    SUNNY     71  25  17 N9        30.04F
SIDNEY         SUNNY     70  25  18 NE15      30.05F

...WESTERN AND NORTH CENTRAL NEBRASKA...

CITY           SKY/WX    TMP DP  RH WIND       PRES   REMARKS
VALENTINE      SUNNY     70  25  18 NW20G28   29.98S
AINSWORTH      SUNNY     71  28  20 NW16      29.97F
ONEILL         SUNNY     73  29  20 NW22G29   29.93S
BROKEN BOW     PTSUNNY   76  25  15 N18       29.95F
IMPERIAL         N/A     76  21  12 N15G22    30.00F
NORTH PLATTE   MOSUNNY   76  23  14 NW15      29.97S
MCCOOK         SUNNY     80  19  10 W8        29.95F

...EASTERN NEBRASKA...

CITY           SKY/WX    TMP DP  RH WIND       PRES   REMARKS
NORFOLK        SUNNY     75  27  17 NW23G30   29.88S
SO SIOUX CITY  MOSUNNY   77  26  15 NW22G32   29.84R
TEKAMAH        SUNNY     79  26  14 W13       29.84F
COLUMBUS       PTSUNNY   75  27  16 NW18      29.90F
ALBION         PTSUNNY   75  23  14 N20G25    29.91S
OMAHA EPPLEY   PTSUNNY   77  32  19 SW16      29.86F
MILLARD        MOSUNNY   76  33  21 W12G17    29.87F
LINCOLN        PTSUNNY   78  29  16 W14       29.90F
NEBRASKA CITY  PTSUNNY   76  27  16 W16G22    29.90F
BEATRICE       MOSUNNY   76  35  22 W10G18    29.90F
FALLS CITY     PTSUNNY   76  27  16 SW16      29.91F

...NORTHERN KANSAS...

CITY           SKY/WX    TMP DP  RH WIND       PRES   REMARKS
GOODLAND       SUNNY     77  15   9 N16G24    30.00F
HILL CITY      SUNNY     81  19  10 NW15G22   29.92F
NORTON         CLEAR     79  10   7 N9G18     29.93F
PHILLIPSBURG   SUNNY     84  19   9 NW15      29.91S
SMITH CENTER   SUNNY     81  27  13 NW14G20   29.89F
BELOIT         SUNNY     70  18  13 SW5       29.88F
HAYS           SUNNY     82  25  12 W6        29.90F
RUSSELL        SUNNY     83  32  16 W13       29.86F
CONCORDIA      SUNNY     79  36  21 S13       29.90F
SALINA         SUNNY     78  38  23 S16       29.92F
TOPEKA         SUNNY     75  30  19 SW10      29.95F



USA.gov is the U.S. government's official web portal to all federal, state and local government web resources and services.